Weather History for KELM - December, 2012

Change the Weather History Date:

Sunday, December 9, 2012

  Actual Average Record
Temperature  
Mean Temperature 36 °F -  
Max Temperature 44 °F 38 °F 64 °F (1966)
Min Temperature 32 °F 23 °F 1 °F (2000)
Degree Days  
Heating Degree Days 28    
Moisture  
Dew Point 30 °F    
Average Humidity 74    
Maximum Humidity 89    
Minimum Humidity 63    
Precipitation  
Precipitation 0.02 in - - ()
Sea Level Pressure  
Sea Level Pressure 30.14 in    
Wind  
Wind Speed 5 mph (NE)    
Max Wind Speed 9 mph    
Max Gust Speed -    
Visibility 10 miles    
Events Rain    
Averages and records for this station are not official NWS values.
T = Trace of Precipitation, MM = Missing Value Source: NWS Daily Summary

Daily Weather History Graph

Daily Weather History Graph

Search for Another Location

Airport or City:

Trip Planner

Search our weather history database for the weather conditions in past years. The results will help you decide how hot, cold, wet, or windy it might be!

Date:

Astronomy

Dec. 09, 2012 Rise Set
Actual Time 7:24 AM EST 4:35 PM EST
Civil Twilight 6:53 AM EST 5:07 PM EST
Nautical Twilight 6:17 AM EST 5:42 PM EST
Astronomical Twilight 5:43 AM EST 6:16 PM EST
Moon 2:51 AM EST (12/9) 1:43 PM EST (12/9)
Length of Visible Light 10h 14m
Length of Day
9h 10m
Waning Crescent, 19% of the Moon is Illuminated
Dec 9
Waning Crescent
Dec 13
New
Dec 20
First Quarter
Dec 28
Full
Jan 4
Last Quarter

Hourly Weather History & Observations

Time (EST) Temp. Windchill Dew Point Humidity Pressure Visibility Wind Dir Wind Speed Gust Speed Precip Events Conditions
12:22 AM 41.0 °F 37.1 °F 35.6 °F 81% 30.10 in 10.0 mi NNW 5.8 mph - N/A   Overcast
12:53 AM 41.0 °F 35.8 °F 33.1 °F 73% 30.13 in 10.0 mi NW 8.1 mph - N/A   Overcast
1:53 AM 39.0 °F 34.0 °F 30.9 °F 73% 30.15 in 10.0 mi NE 6.9 mph - N/A   Overcast
2:53 AM 37.9 °F 34.4 °F 30.0 °F 73% 30.18 in 10.0 mi NNE 4.6 mph - N/A   Overcast
3:53 AM 37.0 °F 30.4 °F 30.0 °F 76% 30.19 in 10.0 mi NE 9.2 mph - N/A   Overcast
4:49 AM 33.8 °F 26.4 °F 28.4 °F 81% 30.20 in 10.0 mi NNE 9.2 mph - N/A   Scattered Clouds
4:53 AM 34.0 °F 27.2 °F 28.0 °F 79% 30.22 in 10.0 mi NNE 8.1 mph - N/A   Partly Cloudy
5:53 AM 32.0 °F 26.4 °F 26.1 °F 79% 30.25 in 10.0 mi NE 5.8 mph - N/A   Mostly Cloudy
6:03 AM 33.8 °F 28.6 °F 26.6 °F 75% 30.22 in 10.0 mi NE 5.8 mph - N/A   Scattered Clouds
6:34 AM 33.8 °F - 26.6 °F 75% 30.23 in 10.0 mi Calm Calm - N/A   Mostly Cloudy
6:53 AM 34.0 °F 29.8 °F 26.1 °F 73% 30.25 in 10.0 mi ENE 4.6 mph - N/A   Overcast
7:53 AM 34.0 °F 28.0 °F 27.0 °F 75% 30.25 in 10.0 mi ENE 6.9 mph - N/A   Overcast
8:53 AM 35.1 °F 30.1 °F 28.0 °F 76% 30.27 in 10.0 mi ENE 5.8 mph - N/A   Overcast
9:53 AM 35.1 °F 31.0 °F 28.0 °F 76% 30.28 in 10.0 mi ENE 4.6 mph - N/A   Overcast
10:53 AM 37.0 °F 33.3 °F 28.0 °F 70% 30.25 in 10.0 mi East 4.6 mph - N/A   Overcast
11:53 AM 37.9 °F - 28.0 °F 68% 30.23 in 10.0 mi Calm Calm - N/A   Overcast
12:53 PM 39.0 °F 36.8 °F 28.0 °F 65% 30.19 in 10.0 mi South 3.5 mph - N/A   Overcast
1:53 PM 39.9 °F - 28.9 °F 65% 30.17 in 10.0 mi Calm Calm - N/A   Overcast
2:53 PM 39.9 °F 36.7 °F 28.0 °F 63% 30.16 in 10.0 mi SSE 4.6 mph - N/A   Mostly Cloudy
3:53 PM 39.9 °F 35.1 °F 28.9 °F 65% 30.13 in 10.0 mi East 6.9 mph - N/A   Overcast
4:36 PM 39.2 °F - 28.4 °F 65% 30.10 in 10.0 mi Calm Calm - N/A   Overcast
5:53 PM 39.9 °F - 28.9 °F 65% 30.11 in 10.0 mi Calm Calm - N/A   Overcast
6:53 PM 41.0 °F - 30.0 °F 65% 30.06 in 10.0 mi Calm Calm - N/A   Overcast
7:46 PM 39.2 °F 35.9 °F 33.8 °F 81% 30.01 in 10.0 mi Variable 4.6 mph - N/A   Overcast
7:53 PM 39.9 °F - 34.0 °F 79% 30.03 in 10.0 mi Calm Calm - N/A   Overcast
8:53 PM 39.9 °F - 36.0 °F 86% 29.99 in 10.0 mi Calm Calm - 0.01 in Rain Light Rain
9:53 PM 39.9 °F 35.8 °F 36.0 °F 86% 29.96 in 5.0 mi ENE 5.8 mph - 0.00 in Rain Light Rain
10:53 PM 41.0 °F 38.0 °F 37.9 °F 89% 29.93 in 10.0 mi North 4.6 mph - 0.01 in   Overcast
11:53 PM 44.1 °F - 39.0 °F 82% 29.90 in 10.0 mi Calm Calm - N/A   Overcast